Welcome to the New NWS' Forecast!
Most changes are behind the scenes, but click here for differences you might notice.

Regional Weather Roundup (RWR)

Issued by Gray - Portland, ME (GYX)

                            
000
ASUS41 KGYX 112305
RWRGYX
WEATHER ROUNDUP FOR MAINE AND NEW HAMPSHIRE
NATIONAL WEATHER SERVICE GRAY ME
600 PM EST SUN NOV 11 2018

MEZ002-005-006-010-012-015-018-020-021-024-026-027-029-120000-
MAINE
  
CITY           SKY/WX    TMP DP  RH WIND       PRES   REMARKS
PORTLAND       FAIR      35   9  33 W9        30.25R                  
SANFORD        FAIR      27  17  66 CALM      30.26R                  
BAR HARBOR     FAIR      31  16  54 W9        30.20R                  
WISCASSET      FAIR      30  16  56 CALM      30.25R                  
ROCKLAND       FAIR      30  18  60 W5        30.22R                  
FRYEBURG       FAIR      31   9  39 W7        30.23R                  
LEWISTONAUBURN FAIR      31  14  49 CALM      30.23R                  
AUGUSTA        FAIR      31  12  45 W14       30.21R                  
WATERVILLE     FAIR      29  16  58 MISG      30.19R                  
BANGOR         FAIR      30  13  49 W7        30.19R                  
GREENVILLE       N/A     22  11  62 NW13G30   30.07R WCI  10          
MILLINOCKET    CLOUDY    27  13  55 NW12G22   30.15R WCI  17          
HOULTON        FAIR      26  15  63 W10G20    30.04R WCI  16          
PRESQUE ISLE   FAIR      25  16  68 W21       30.01R WCI  11          
FRENCHVILLE    CLOUDY    27  13  55 W22G33    29.94R WCI  13          
CARIBOU        CLOUDY    26  16  65 W15G28    29.99R WCI  14          
$$

NHZ002-005-008-009-011-012-014-120000-
NEW HAMPSHIRE
  
CITY           SKY/WX    TMP DP  RH WIND       PRES   REMARKS
PORTSMOUTH     PTCLDY    35   8  31 W3        30.25R                  
ROCHESTER      FAIR      33  11  39 VRB3      30.25R                  
NASHUA         FAIR      34  16  47 CALM      30.29R                  
MANCHESTER     FAIR      38   8  29 W3        30.26R                  
CONCORD        FAIR      33  10  38 W3        30.26R                  
LACONIA        FAIR      32  12  43 W6        30.25R                  
PLYMOUTH       FAIR      30  13  50 CALM      30.25R                  
BERLIN         FAIR      27  11  51 VRB3      30.19R                  
WHITEFIELD     FAIR      26  14  60 SW3       30.22R                  
JAFFREY        FAIR      34  14  43 W7        30.25R                  
KEENE          FAIR      35  13  40 W3        30.29R                  
LEBANON        FAIR      30  14  51 CALM      30.26R                  
MT WASHINGTON  BLWGSNOW   1   1 100 W62         N/A  VSB 1/16WCI -31  
$$

VTZ005-007-008-120000-
VERMONT
  
CITY           SKY/WX    TMP DP  RH WIND       PRES   REMARKS
ST JOHNSBURY     N/A     26  18  71 MISG      30.24R                  
MONTPELIER     FAIR      29   7  39 NW8       30.27R                  
BURLINGTON     FAIR      34   6  31 NW10      30.29R                  
$$

MAZ007-012-024-CTZ003-RIZ002-NYZ038-NYZ072-120000-
SOUTHERN NEW ENGLAND AND NY
  
CITY           SKY/WX    TMP DP  RH WIND       PRES   REMARKS
BOSTON         FAIR      43  15  32 W12       30.29R                  
WORCESTER      FAIR      33  18  53 SW6       30.27R                  
NANTUCKET      FAIR      39  22  50 NW8       30.29R                  
PROVIDENCE     FAIR      38  20  48 CALM      30.32R                  
HARTFORD       FAIR      36  20  52 N3        30.33R                  
ALBANY         FAIR      34  20  56 W9        30.34R                  
NEW YORK CITY  FAIR      46  22  38 NW9       30.34R                  
$$

ANZ081-ANZ082-ANZ150-NHZ014-MEZ023>029-120000-
COASTAL MARINE OBSERVATIONS
  
STATION/POSITION TIME  TEMP    WIND        PRES    WAVE
                       AIR SEA DIR/SP/G            HT/PER
                 (UTC) (F)     (DEG/KT/KT) (MB)    (FT/S)
MOUNT DESERT ROC 2300   36     270/ 24/ 29 1022.1R
MATINICUS ROCK   2200   38     290/ 26/ 29 1021.3R
ISLE OF SHOALS   2200   40     290/ 18/ 20 1023.7R
JEFFREYS LEDGE   2236      51                N/A     4/ 5
CASHES LEDGE BUO 2250   40 51              1023.1R   6/ 6
$$

.............KEY..............
   WCI - WIND CHILL
   TC  - TEMPERATURE IN CELSIUS
   VSB - VISIBILITY IN MILES
   HX  - HEAT INDEX
   FAIR- INDICATES FEW OR NO CLOUDS BELOW 12,000 FT, WITH NO 
         SIGNIFICANT WEATHER AND/OR OBSTRUCTIONS TO VISIBILITY.